Location: Audignicourt
(49.4788°N, 3.1340°E)
Time: 20:36:49
(UTC+00:00)

Cosmos 1763 Rocket - Pass Details

Date: 15 May 2026
Orbit: 728 x 773 km, 74.0° (Epoch: 8 June)

Event Time Altitude Azimuth Distance (km) Brightness Sun altitude
Exits shadow 21:10:52 18° 161° (SSE) 1,812 4.9 -13.6°
Maximum altitude 21:14:13 38° 103° (ESE) 1,165 4.1 -13.9°
Drops below altitude 10° 21:19:04 10° 37° (NE) 2,321 6.2 -14.3°
Sets 21:21:34 0° 30° (NNE) 3,247 7.1 -14.6°
